Location: Newark
(39.6867°N, 100.6772°W)
Time: 04:16:46
(UTC+00:00)

Transit 2A Rocket - Visible Passes

Search period start: 20 October 2019 00:00
Search period end: 30 October 2019 00:00
Orbit: 594 x 910 km, 66.7° (Epoch: 18 October)

Date Brightness Start Highest point End Pass type
(mag) Time Alt. Az. Time Alt. Az. Time Alt. Az.
20 Oct 7.4 10:08:03 10° SSE 10:11:26 18° ESE 10:14:40 10° ENE visible
20 Oct 4.9 11:48:35 10° SW 11:53:39 54° WNW 11:58:18 10° NNE visible
21 Oct 4.8 11:08:23 28° SSW 11:11:07 85° ESE 11:15:53 10° NNE visible
22 Oct 5.7 10:28:21 46° SE 10:28:39 46° ESE 10:33:14 10° NE visible
22 Oct 6.0 12:08:20 14° W 12:11:21 22° NW 12:15:03 10° N visible
23 Oct 7.1 09:48:02 21° ENE 09:48:02 21° ENE 09:50:14 10° NE visible
23 Oct 5.3 11:28:00 35° WNW 11:28:39 37° NW 11:33:02 10° NNE visible
24 Oct 5.5 10:47:27 44° N 10:47:27 44° N 10:50:45 10° NNE visible
25 Oct 6.9 10:06:44 21° NE 10:06:44 21° NE 10:08:16 10° NE visible
25 Oct 6.4 11:46:41 16° NW 11:46:41 16° NW 11:49:24 10° N visible
26 Oct 6.5 11:05:50 19° NNW 11:05:50 19° NNW 11:07:39 10° N visible
27 Oct 7.2 10:24:53 14° NNE 10:24:53 14° NNE 10:25:32 10° NNE visible
